DLH5KU LOWW-LKPR

Flight info

Callsign DLH5KU
Flight time 0h 29m
Altitude 22000
Route LANUX DCT VLM
Aircraft B748/H-SDE3FGHIM1M2RWXY/LB1

Departure

Time 2026-05-06 11:38
Airport Vienna International Airport (LOWW)

Arrival

Time 2026-05-06 12:08
Airport Václav Havel Airport Prague (LKPR)
Time Latitude Longitude Altitude Speed Heading
2026-05-06 11:06 48.11696 16.56781 633 ft 0 kts 27°
2026-05-06 11:08 48.11718 16.56729 619 ft 0 kts 26°
2026-05-06 11:23 48.11711 16.56724 621 ft 4 kts 24°
2026-05-06 11:24 48.11689 16.56709 621 ft 4 kts 24°
2026-05-06 11:24 48.11671 16.56695 622 ft 2 kts 43°
2026-05-06 11:24 48.11663 16.56681 622 ft 3 kts 97°
2026-05-06 11:24 48.11666 16.56648 621 ft 2 kts 111°
2026-05-06 11:25 48.11672 16.56634 621 ft 2 kts 108°
2026-05-06 11:25 48.11675 16.56618 621 ft 2 kts 127°
2026-05-06 11:25 48.11675 16.56617 621 ft 0 kts 126°
2026-05-06 11:27 48.11674 16.56622 621 ft 2 kts 116°
2026-05-06 11:28 48.11651 16.56698 622 ft 14 kts 115°
2026-05-06 11:28 48.11594 16.56874 619 ft 21 kts 116°
2026-05-06 11:28 48.11551 16.57000 621 ft 19 kts 116°
2026-05-06 11:28 48.11499 16.57163 624 ft 15 kts 116°
2026-05-06 11:29 48.11449 16.57320 624 ft 11 kts 115°
2026-05-06 11:29 48.11425 16.57372 621 ft 7 kts 140°
2026-05-06 11:29 48.11397 16.57383 626 ft 3 kts 178°
2026-05-06 11:29 48.11385 16.57379 622 ft 2 kts 193°
2026-05-06 11:30 48.11362 16.57366 622 ft 5 kts 205°
2026-05-06 11:30 48.11309 16.57329 622 ft 12 kts 205°
2026-05-06 11:30 48.11237 16.57281 625 ft 7 kts 188°
2026-05-06 11:30 48.11204 16.57308 625 ft 7 kts 141°
2026-05-06 11:31 48.11178 16.57376 626 ft 10 kts 115°
2026-05-06 11:31 48.11140 16.57490 621 ft 14 kts 116°
2026-05-06 11:31 48.11093 16.57619 623 ft 11 kts 130°
2026-05-06 11:31 48.11043 16.57638 619 ft 0 kts 193°
2026-05-06 11:33 48.11037 16.57635 615 ft 3 kts 197°
2026-05-06 11:34 48.11007 16.57617 614 ft 6 kts 203°
2026-05-06 11:34 48.10960 16.57584 622 ft 8 kts 208°
2026-05-06 11:34 48.10924 16.57540 622 ft 4 kts 243°
2026-05-06 11:34 48.10927 16.57500 623 ft 3 kts 290°
2026-05-06 11:35 48.10934 16.57475 619 ft 4 kts 295°
2026-05-06 11:35 48.10967 16.57383 624 ft 27 kts 297°
2026-05-06 11:35 48.11009 16.57260 624 ft 0 kts 297°
2026-05-06 11:37 48.11009 16.57259 624 ft 0 kts 297°
2026-05-06 11:37 48.11013 16.57234 624 ft 8 kts 285°
2026-05-06 11:38 48.11031 16.57171 622 ft 8 kts 296°
2026-05-06 11:38 48.11183 16.56698 625 ft 102 kts 296°
2026-05-06 11:38 48.11646 16.55279 628 ft 198 kts 293°
2026-05-06 11:38 48.12242 16.53265 1598 ft 218 kts 281°
2026-05-06 11:39 48.12288 16.51131 3132 ft 202 kts 251°
2026-05-06 11:39 48.11667 16.49311 4565 ft 199 kts 224°
2026-05-06 11:39 48.10475 16.48124 5653 ft 219 kts 202°
2026-05-06 11:39 48.08985 16.47338 6782 ft 237 kts 199°
2026-05-06 11:40 48.07607 16.46005 8314 ft 236 kts 229°
2026-05-06 11:40 48.06881 16.43834 10038 ft 233 kts 246°
2026-05-06 11:40 48.06200 16.41633 11473 ft 228 kts 242°
2026-05-06 11:40 48.05513 16.39559 13116 ft 220 kts 241°
2026-05-06 11:41 48.04792 16.37425 14038 ft 240 kts 240°
2026-05-06 11:41 48.04007 16.35075 14683 ft 266 kts 242°
2026-05-06 11:41 48.03344 16.32293 15047 ft 309 kts 260°
2026-05-06 11:41 48.03398 16.28933 15938 ft 334 kts 270°
2026-05-06 11:42 48.03547 16.25376 16983 ft 352 kts 270°
2026-05-06 11:42 48.04004 16.21663 18002 ft 378 kts 287°
2026-05-06 11:42 48.05375 16.18171 18945 ft 401 kts 304°
2026-05-06 11:42 48.07105 16.14884 19883 ft 415 kts 304°
2026-05-06 11:43 48.08949 16.11472 20875 ft 427 kts 306°
2026-05-06 11:43 48.10876 16.08030 22036 ft 434 kts 306°
2026-05-06 11:43 48.13074 16.04835 23179 ft 450 kts 320°
2026-05-06 11:44 48.18917 16.00822 25151 ft 471 kts 334°
2026-05-06 11:44 48.21988 15.99061 25811 ft 478 kts 336°
2026-05-06 11:44 48.25164 15.97473 25814 ft 482 kts 338°
2026-05-06 11:44 48.28355 15.95865 25810 ft 488 kts 336°
2026-05-06 11:45 48.31588 15.94048 25824 ft 504 kts 335°
2026-05-06 11:45 48.34930 15.92182 25816 ft 519 kts 336°
2026-05-06 11:45 48.38363 15.90413 25819 ft 523 kts 337°
2026-05-06 11:45 48.41808 15.88604 25815 ft 523 kts 336°
2026-05-06 11:46 48.45229 15.86756 25819 ft 523 kts 336°
2026-05-06 11:46 48.48646 15.84887 25818 ft 523 kts 336°
2026-05-06 11:46 48.52060 15.83019 25814 ft 522 kts 335°
2026-05-06 11:46 48.55480 15.81151 25819 ft 522 kts 335°
2026-05-06 11:47 48.58900 15.79285 25815 ft 522 kts 335°
2026-05-06 11:47 48.62270 15.77448 25820 ft 522 kts 335°
2026-05-06 11:47 48.65736 15.75560 25815 ft 522 kts 335°
2026-05-06 11:47 48.69157 15.73694 25816 ft 523 kts 335°
2026-05-06 11:48 48.72538 15.71847 25825 ft 523 kts 335°
2026-05-06 11:48 48.75965 15.69974 25819 ft 523 kts 335°
2026-05-06 11:48 48.79385 15.68101 25820 ft 523 kts 335°
2026-05-06 11:48 48.82808 15.66226 25828 ft 523 kts 335°
2026-05-06 11:49 48.86156 15.64127 25825 ft 517 kts 328°
2026-05-06 11:49 48.89276 15.61457 25817 ft 514 kts 325°
2026-05-06 11:49 48.92462 15.58938 25813 ft 518 kts 330°
2026-05-06 11:49 48.95799 15.56809 25822 ft 520 kts 333°
2026-05-06 11:50 48.99167 15.54779 25806 ft 521 kts 333°
2026-05-06 11:50 49.02481 15.52583 25803 ft 518 kts 330°
2026-05-06 11:50 49.05752 15.50282 25807 ft 519 kts 330°
2026-05-06 11:50 49.09077 15.48095 25815 ft 520 kts 332°
2026-05-06 11:51 49.12406 15.45957 25819 ft 519 kts 332°
2026-05-06 11:51 49.15721 15.43756 25822 ft 519 kts 331°
2026-05-06 11:51 49.19022 15.41531 25826 ft 519 kts 331°
2026-05-06 11:51 49.22329 15.39293 25822 ft 519 kts 331°
2026-05-06 11:52 49.25589 15.37087 25644 ft 515 kts 331°
2026-05-06 11:52 49.28796 15.34936 25280 ft 492 kts 331°
2026-05-06 11:52 49.31877 15.32877 24886 ft 476 kts 330°
2026-05-06 11:52 49.34897 15.30846 24491 ft 472 kts 330°
2026-05-06 11:53 49.37891 15.28822 24042 ft 469 kts 330°
2026-05-06 11:53 49.40874 15.26799 23624 ft 466 kts 330°
2026-05-06 11:53 49.43838 15.24786 23145 ft 463 kts 330°
2026-05-06 11:53 49.46778 15.22787 22622 ft 460 kts 330°
2026-05-06 11:54 49.49685 15.20810 22124 ft 456 kts 330°
2026-05-06 11:54 49.52577 15.18842 21631 ft 449 kts 330°
2026-05-06 11:54 49.55394 15.16932 21103 ft 436 kts 330°
2026-05-06 11:54 49.58136 15.15072 20609 ft 425 kts 330°
2026-05-06 11:55 49.60814 15.13249 20090 ft 418 kts 330°
2026-05-06 11:55 49.63422 15.11465 19614 ft 414 kts 330°
2026-05-06 11:55 49.66037 15.09670 19119 ft 408 kts 330°
2026-05-06 11:55 49.68595 15.07883 18640 ft 398 kts 327°
2026-05-06 11:56 49.70780 15.05414 18177 ft 383 kts 312°
2026-05-06 11:56 49.72642 15.02517 17653 ft 377 kts 306°
2026-05-06 11:56 49.74267 14.99378 17134 ft 372 kts 302°
2026-05-06 11:56 49.75786 14.96172 16613 ft 368 kts 301°
2026-05-06 11:57 49.77274 14.92959 16101 ft 367 kts 301°
2026-05-06 11:57 49.78800 14.89813 15587 ft 365 kts 303°
2026-05-06 11:57 49.80474 14.86862 15095 ft 367 kts 315°
2026-05-06 11:57 49.82690 14.84848 14590 ft 373 kts 337°
2026-05-06 11:58 49.85211 14.83915 14085 ft 371 kts 345°
2026-05-06 11:58 49.87710 14.82995 13531 ft 366 kts 344°
2026-05-06 11:58 49.90156 14.82166 12976 ft 363 kts 347°
2026-05-06 11:58 49.92645 14.81578 12409 ft 361 kts 350°
2026-05-06 11:59 49.95116 14.81095 11827 ft 347 kts 350°
2026-05-06 11:59 49.97411 14.80587 11247 ft 320 kts 347°
2026-05-06 11:59 49.99542 14.79909 10673 ft 305 kts 341°
2026-05-06 11:59 50.01505 14.78874 10159 ft 298 kts 334°
2026-05-06 12:00 50.03400 14.77517 9653 ft 301 kts 330°
2026-05-06 12:00 50.05255 14.76072 9072 ft 295 kts 329°
2026-05-06 12:00 50.07076 14.74654 8509 ft 290 kts 328°
2026-05-06 12:00 50.08810 14.73110 7965 ft 284 kts 324°
2026-05-06 12:01 50.10421 14.71388 7403 ft 279 kts 320°
2026-05-06 12:01 50.11974 14.69602 6881 ft 275 kts 320°
2026-05-06 12:01 50.13523 14.67869 6334 ft 273 kts 322°
2026-05-06 12:01 50.15084 14.66257 5797 ft 271 kts 323°
2026-05-06 12:02 50.16640 14.64623 5236 ft 268 kts 323°
2026-05-06 12:02 50.18174 14.62980 4685 ft 266 kts 322°
2026-05-06 12:02 50.19515 14.61071 4109 ft 258 kts 300°
2026-05-06 12:02 50.20037 14.58553 3899 ft 239 kts 267°
2026-05-06 12:03 50.19662 14.56127 3847 ft 223 kts 246°
2026-05-06 12:03 50.19236 14.53865 3828 ft 211 kts 255°
2026-05-06 12:03 50.18850 14.51698 3831 ft 201 kts 248°
2026-05-06 12:03 50.18368 14.49747 3869 ft 183 kts 245°
2026-05-06 12:04 50.17870 14.48019 3854 ft 164 kts 244°
2026-05-06 12:04 50.17396 14.46511 3804 ft 147 kts 242°
2026-05-06 12:04 50.16943 14.45121 3673 ft 143 kts 240°
2026-05-06 12:04 50.16490 14.43776 3439 ft 138 kts 242°
2026-05-06 12:05 50.16068 14.42439 3314 ft 138 kts 243°
2026-05-06 12:05 50.15693 14.41110 3177 ft 137 kts 244°
2026-05-06 12:05 50.15305 14.39753 2983 ft 135 kts 244°
2026-05-06 12:05 50.14916 14.38443 2736 ft 132 kts 244°
2026-05-06 12:06 50.14529 14.37139 2549 ft 132 kts 243°
2026-05-06 12:06 50.14139 14.35823 2394 ft 138 kts 245°
2026-05-06 12:06 50.13744 14.34477 2182 ft 135 kts 242°
2026-05-06 12:06 50.13305 14.33163 2034 ft 137 kts 244°
2026-05-06 12:07 50.12949 14.31780 1763 ft 137 kts 245°
2026-05-06 12:07 50.12531 14.30485 1595 ft 135 kts 244°
2026-05-06 12:07 50.12149 14.29134 1434 ft 137 kts 244°
2026-05-06 12:07 50.11741 14.27796 1268 ft 137 kts 242°
2026-05-06 12:08 50.11356 14.26528 1174 ft 117 kts 248°
2026-05-06 12:08 50.11064 14.25548 1175 ft 84 kts 242°
2026-05-06 12:08 50.10894 14.24995 1175 ft 32 kts 245°
2026-05-06 12:08 50.10825 14.24774 1175 ft 24 kts 243°
2026-05-06 12:09 50.10756 14.24568 1177 ft 19 kts 240°
2026-05-06 12:09 50.10676 14.24445 1179 ft 13 kts 219°
2026-05-06 12:09 50.10619 14.24379 1186 ft 8 kts 215°
2026-05-06 12:09 50.10575 14.24331 1187 ft 7 kts 215°
2026-05-06 12:10 50.10534 14.24286 1187 ft 7 kts 213°
2026-05-06 12:10 50.10496 14.24253 1187 ft 8 kts 202°
2026-05-06 12:10 50.10419 14.24245 1188 ft 13 kts 164°
2026-05-06 12:10 50.10349 14.24343 1187 ft 16 kts 117°
2026-05-06 12:11 50.10336 14.24512 1178 ft 18 kts 80°
2026-05-06 12:11 50.10360 14.24723 1177 ft 21 kts 79°
2026-05-06 12:11 50.10391 14.24968 1179 ft 25 kts 78°
2026-05-06 12:11 50.10428 14.25251 1178 ft 26 kts 78°
2026-05-06 12:12 50.10458 14.25507 1186 ft 21 kts 81°
2026-05-06 12:12 50.10484 14.25702 1189 ft 17 kts 80°
2026-05-06 12:12 50.10502 14.25861 1191 ft 13 kts 80°
2026-05-06 12:12 50.10533 14.25963 1193 ft 8 kts 46°
2026-05-06 12:13 50.10592 14.26028 1191 ft 16 kts 32°
2026-05-06 12:13 50.10713 14.26156 1182 ft 23 kts 34°
2026-05-06 12:13 50.10799 14.26256 1175 ft 11 kts 45°
2026-05-06 12:13 50.10811 14.26322 1178 ft 5 kts 86°
2026-05-06 12:14 50.10807 14.26349 1178 ft 3 kts 107°
2026-05-06 12:14 50.10819 14.26410 1175 ft 10 kts 50°
2026-05-06 12:14 50.10850 14.26441 1176 ft 0 kts 32°
2026-05-06 12:14 50.10855 14.26447 1177 ft 0 kts 33°